Simultaneous Nadir Overpasses (SNOs) Predictions

Prediction of SNOs between GOES-17 and METOP-C Satellite Orbit:

Table of predicted SNOs for the next 14.0 days since TLE Epoch: 3/18/2023
Index Date Time (GOES-17) GOES-17 Lat,Lon METOP-C Lat,Lon Distance(km) Time Diff (sec)
1 03/18/2023 04:21:17 0.01,-104.73 0.53,-102.43 261.95 80
2 03/19/2023 16:37:28 -0.00,-104.75 0.51,-106.98 254.05 80
3 03/20/2023 16:19:27 0.00,-104.75 -0.60,-101.98 315.06 80
4 03/22/2023 04:35:44 -0.01,-104.70 -0.45,-106.56 212.77 80
5 03/23/2023 04:17:44 -0.01,-104.70 0.67,-101.56 356.48 80
6 03/24/2023 16:33:55 0.01,-104.73 0.31,-106.13 159.19 80
7 03/25/2023 16:15:55 0.01,-104.73 -0.82,-101.13 410.06 80
8 03/27/2023 04:34:52 0.02,-104.68 -0.21,-105.72 118.41 80
9 03/28/2023 04:11:32 0.02,-104.67 0.92,-100.72 450.57 80
10 03/29/2023 16:30:22 -0.02,-104.70 0.11,-105.28 65.39 80
